RH
74 95 100 89 71 53 95 89 87 70 98 96 100 99 100 97 90 86 85 80 73 63 55 42 38 34 22 16 19 34 33 34 50 64 92 96 100 91 81 75 73 63 51 41
50 48 48 42 76 98 99 100 91 97 100 96 99 98 98 94 83 61 76 80 89 81 43 37 43 30 20 17 21 26 30 28 35 61 82 65 75 89 83 86 81 69 56 55
75 47 47 47 100 72 76 98 95 100 92 89 99 99 100 86 80 55 73 89 99 64 53 48 46 41 30 20 21 24 35 37 37 40 55 61 59 56 55 81 95 84 71 65
96 98 93 100 89 87 51 55 66 81 88 99 100 100 100 72 60 72 89 98 96 97 100 82 63 48 34 29 24 22 36 41 41 48 47 48 70 66 66 86 84 85 82 74
52 88 100 100 44 68 93 48 46 72 99 100 100 95 100 69 59 87 98 96 96 96 79 65 59 45 38 36 36 26 27 31 34 35 43 51 57 65 68 64 64 70 81 76
36 38 59 95 100 100 100 51 44 88 85 98 97 100 86 57 54 86 95 97 94 100 84 60 58 49 40 32 32 26 22 30 40 37 47 78 83 91 88 81 77 60 68 87
36 37 59 62 70 82 97 79 61 64 85 94 98 99 70 63 49 50 84 97 100 93 84 64 66 59 56 29 26 28 24 31 42 51 56 60 89 97 97 92 93 83 92 98
32 34 36 28 22 33 82 74 92 65 44 85 97 84 92 78 73 57 97 97 92 94 95 75 85 76 43 28 26 29 34 29 33 51 52 64 73 91 96 97 95 85 97 95
28 29 25 27 14 41 71 60 70 70 55 70 76 84 98 75 70 88 74 98 98 97 97 95 96 81 48 32 33 35 33 32 26 34 39 53 71 86 97 97 97 97 100 97
24 31 36 38 52 29 65 71 67 63 60 53 56 59 80 80 73 79 82 92 96 97 97 96 92 94 55 42 46 48 46 44 39 33 43 53 66 86 96 96 97 95 97 98
38 31 46 48 43 40 28 49 62 61 54 48 51 69 71 64 68 75 72 71 97 97 98 98 97 98 98 90 59 57 53 46 37 34 38 44 54 75 89 95 89 81 93 93
44 46 55 81 45 38 38 34 31 46 54 39 38 46 57 68 71 59 60 63 86 98 98 97 99 98 98 96 82 65 63 57 51 50 49 49 55 61 74 80 85 91 94 62
47 48 66 82 54 62 62 62 52 59 60 37 37 58 48 56 62 68 61 57 66 92 91 94 94 94 97 98 93 80 64 68 61 54 62 68 67 66 70 77 79 88 100 91
28 32 47 64 72 74 63 92 78 50 38 43 42 70 61 63 56 48 48 50 51 72 85 98 88 72 66 73 96 94 81 75 68 58 62 75 75 77 75 72 73 74 82 84
55 23 28 42 62 63 60 62 62 40 32 31 35 31 50 63 58 52 43 47 56 66 86 77 72 75 58 53 57 62 86 92 78 77 61 58 60 67 72 72 68 67 69 76
96 61 27 24 32 41 51 51 51 47 30 22 21 21 26 28 34 35 32 40 56 82 81 78 60 53 54 48 53 56 66 73 89 90 70 66 66 69 69 60 53 61 61 61
94 98 93 41 37 34 23 29 29 24 21 22 16 22 25 23 21 22 25 23 30 40 46 54 56 54 52 48 60 62 72 80 77 74 78 75 74 70 58 52 48 48 50 57
82 89 99 98 82 41 34 26 26 21 21 24 16 16 18 22 25 18 18 17 21 29 38 43 40 40 42 51 68 71 72 79 80 78 75 71 76 80 66 62 61 58 64 68
100 97 94 91 99 95 78 52 42 34 32 25 19 14 13 14 18 23 22 25 26 27 34 36 44 49 47 53 69 85 82 83 77 76 82 82 90 100 100 98 88 83 78 80
100 100 95 93 91 88 100 100 89 80 81 71 66 53 36 29 25 28 32 34 31 29 30 34 42 51 50 52 78 85 77 72 73 86 88 77 61 64 66 71 76 82 82 91
100 100 94 98 89 73 100 99 98 100 95 100 99 98 90 85 65 40 21 20 22 22 23 26 28 32 41 48 61 86 90 89 92 90 77 70 69 66 67 82 95 95 99 100
100 100 100 100 97 98 100 100 99 100 100 100 100 99 99 100 100 100 94 61 36 33 29 25 24 26 31 39 47 56 65 68 65 63 60 60 71 81 92 97 97 98 93 83
100 100 100 100 100 100 100 93 80 98 100 100 100 100 100 98 98 98 98 99 99 99 82 69 59 46 35 36 41 47 57 67 70 66 66 70 73 69 71 77 80 90 90 90
100 100 100 100 100 100 99 98 93 74 83 97 100 100 100 100 100 99 98 99 100 99 98 97 99 97 62 44 41 45 54 60 67 71 72 76 84 96 98 93 87 83 83 84
100 99 98 94 100 97 98 94 85 81 96 97 96 100 100 100 100 100 100 99 99 100 100 100 100 100 100 94 77 59 53 55 60 64 66 70 75 81 85 87 88 90 90 92
100 100 82 90 94 95 100 100 100 100 100 100 100 100 100 100 99 100 100 100 98 97 99 100 100 100 100 100 100 100 99 91 74 62 64 69 75 79 84 89 92 97 96 93
Wind_Speed
5 4 9 14 11 23 26 35 38 50 51 59 26 36 46 68 75 76 71 63 57 53 50 45 42 39 36 36 34 32 31 31 31 30 30 25 27 31 31 29 27 26 25 26
21 17 11 18 13 30 11 24 30 42 43 43 39 31 56 67 70 73 60 59 57 54 50 46 43 39 37 35 32 30 29 30 31 31 30 30 32 32 30 27 26 28 29 28
34 32 27 20 10 10 4 8 22 35 44 41 31 24 54 61 68 66 61 57 56 51 47 46 44 39 37 34 30 28 27 29 30 32 32 32 30 26 25 28 29 30 28 26
35 24 15 11 16 15 4 7 20 24 45 34 9 30 57 71 72 70 64 58 56 51 49 46 42 39 37 34 31 29 31 30 30 29 29 31 30 28 28 32 33 32 30 29
26 19 18 20 18 10 5 18 18 23 30 22 18 15 68 70 77 78 52 60 55 54 52 50 45 40 36 34 33 33 32 29 28 29 30 30 29 32 33 33 34 34 30 30
20 15 12 20 16 8 11 16 21 20 34 24 21 15 52 69 68 69 58 57 53 53 53 51 49 45 38 37 37 35 33 31 30 29 29 27 27 29 31 33 33 30 32 33
14 14 12 15 12 19 12 17 22 23 34 20 13 28 44 67 69 64 59 53 59 58 55 52 50 48 42 39 38 35 31 29 28 28 28 30 27 26 33 36 32 31 33 33
11 4 10 8 8 12 7 6 13 23 28 27 14 29 29 51 63 63 56 34 59 48 55 51 49 44 40 39 37 33 31 32 33 31 29 30 31 30 32 34 30 30 36 37
9 7 8 8 6 6 4 8 5 13 25 28 20 15 9 26 51 63 55 43 41 49 51 51 47 43 41 39 37 35 34 35 35 33 33 31 32 34 31 31 29 35 33 40
16 10 10 5 12 7 2 2 6 8 17 22 17 18 25 10 18 34 53 47 27 19 32 40 47 45 38 38 39 39 38 37 35 33 32 30 34 33 37 30 32 30 32 30
20 18 15 13 13 11 11 5 9 11 15 18 18 16 25 23 17 21 31 36 31 27 21 28 35 37 40 40 38 37 37 37 35 34 33 32 33 36 34 34 30 32 33 28
21 21 18 18 23 19 15 15 8 12 15 12 13 17 23 16 12 20 24 31 30 29 25 22 34 38 41 43 41 39 38 37 35 34 33 33 34 36 35 33 31 31 31 27
24 24 24 18 25 22 25 20 16 15 16 18 18 20 23 27 20 21 22 28 33 33 29 28 30 33 36 40 41 43 42 39 37 38 36 34 34 32 32 33 34 33 32 30
31 27 25 27 26 28 29 27 21 20 19 19 19 25 27 27 26 28 28 27 33 37 34 34 32 33 32 32 32 42 44 42 41 41 39 37 36 34 32 30 31 32 33 33
39 34 32 30 34 36 36 35 33 27 28 25 22 25 28 28 30 36 36 36 39 44 46 46 43 42 39 38 39 38 38 43 44 44 43 42 42 42 41 39 39 38 38 37
51 43 41 35 35 38 42 40 39 33 30 29 28 29 29 32 37 36 34 33 40 44 48 48 48 48 48 45 45 46 45 44 43 50 44 43 43 43 43 44 44 44 44 44
27 41 52 47 42 43 46 40 36 33 32 33 32 29 39 43 45 45 47 44 42 43 49 51 51 49 48 48 49 50 50 50 48 48 47 50 50 50 50 50 50 49 49 49
27 28 33 52 56 56 51 46 41 41 38 37 38 38 40 40 45 50 52 51 50 49 48 46 51 54 51 48 50 53 53 53 50 49 51 51 52 54 55 55 55 55 55 54
31 30 31 29 41 55 62 57 49 47 46 47 46 48 47 45 45 48 52 52 54 56 53 53 51 50 50 48 52 59 60 60 57 54 56 55 54 55 56 58 58 57 57 57
33 31 32 32 31 34 41 55 64 60 57 56 55 52 54 57 57 58 56 54 54 56 57 54 52 53 51 50 52 55 58 60 62 58 54 54 56 56 56 59 61 63 63 61
33 33 32 32 30 27 26 35 44 51 51 49 53 60 64 62 58 57 57 56 54 53 53 53 54 53 52 53 53 57 59 60 63 63 63 62 60 59 58 59 59 60 60 61
31 31 30 29 29 28 27 26 29 34 41 44 44 45 47 50 54 60 61 60 59 56 54 52 51 51 53 52 54 55 56 59 60 60 61 59 59 63 65 67 66 65 65 65
28 29 31 30 30 31 31 27 28 30 32 34 37 40 41 43 47 49 51 51 56 63 64 62 55 52 51 51 51 53 55 55 56 56 57 58 61 63 65 67 68 67 67 68
28 31 30 30 27 31 34 31 31 30 33 35 36 38 39 39 41 44 47 49 48 48 53 56 57 54 51 52 51 52 53 55 57 59 60 60 62 64 66 67 68 66 66 67
23 26 30 30 31 33 32 33 31 30 32 32 33 33 34 35 38 39 40 43 46 46 46 47 48 51 55 56 54 54 54 55 56 57 59 61 63 65 66 68 69 69 69 70
18 22 26 27 31 31 29 30 28 31 32 33 32 31 32 33 35 35 37 40 42 44 45 45 45 46 48 50 51 53 56 57 58 60 61 62 63 64 65 67 69 70 70 71
Wind_Direction
5 256 252 228 199 173 176 181 185 191 196 187 177 210 197 188 196 200 202 196 192 197 202 202 206 210 215 219 220 218 219 222 221 217 215 217 216 218 220 223 228 230 232 233
65 78 100 88 151 160 102 163 191 186 206 192 201 206 179 193 193 200 194 206 195 195 198 200 202 205 209 213 215 216 217 218 219 220 221 222 223 222 223 225 228 230 228 228
68 88 82 103 64 153 134 147 189 192 196 189 197 164 193 190 191 198 201 202 197 194 195 197 199 199 206 209 210 210 214 217 219 221 225 226 230 233 235 230 229 231 232 233
38 79 88 56 88 99 110 206 197 213 189 187 178 165 183 183 188 195 201 187 191 190 192 196 200 201 204 204 205 207 211 215 220 222 223 227 229 228 229 228 229 230 230 232
30 58 33 70 129 103 249 210 206 223 225 195 195 170 181 187 194 203 199 189 192 192 197 200 202 200 203 205 206 210 213 216 220 224 225 226 226 231 235 236 237 235 231 233
27 55 42 64 44 77 124 166 191 215 207 215 221 197 188 191 198 201 205 190 192 195 200 200 202 202 204 208 210 213 215 215 218 223 227 229 225 231 238 239 240 236 235 235
21 31 69 73 75 28 81 141 183 208 225 242 213 186 192 198 201 204 205 191 196 198 197 201 204 208 213 215 216 217 219 221 221 225 228 230 222 230 237 234 236 233 231 234
25 36 350 19 16 9 89 149 200 220 233 238 215 200 206 207 201 205 215 213 207 211 202 200 207 212 216 218 220 219 218 221 223 226 227 230 229 234 244 229 222 233 241 239
317 332 315 332 300 54 67 128 203 226 220 229 245 157 215 212 210 210 218 221 214 192 201 203 207 212 215 218 220 220 222 224 225 226 227 228 233 233 234 236 231 240 245 248
263 261 269 273 163 163 107 257 196 199 195 213 230 240 225 228 218 220 224 215 212 210 208 209 208 208 215 220 219 219 222 226 227 229 229 229 233 232 232 238 237 238 246 249
250 246 237 239 199 209 207 223 192 177 194 206 216 234 232 242 253 225 219 224 222 220 220 214 211 209 209 213 220 224 226 230 231 231 232 232 236 241 242 254 255 257 252 245
241 239 225 226 211 201 203 191 183 191 185 196 230 225 214 216 232 196 212 223 221 211 211 214 217 212 214 217 219 227 230 233 235 234 234 235 234 239 242 245 247 251 255 250
236 238 226 220 212 217 194 194 188 200 187 192 209 206 206 213 228 228 232 219 219 224 224 215 213 220 224 225 224 223 229 231 234 236 235 234 238 237 237 239 243 243 242 247
247 236 229 214 209 207 209 227 233 224 210 195 190 206 204 202 217 224 221 214 218 219 217 218 218 225 230 232 231 231 229 231 233 236 237 236 238 241 240 240 241 244 247 250
236 240 236 232 225 221 227 237 239 228 223 217 208 203 212 223 218 224 229 227 220 219 218 224 229 230 232 235 236 235 236 236 237 237 237 240 241 242 246 247 248 248 250 251
242 230 238 233 234 233 230 234 240 243 238 220 222 210 216 216 218 228 230 228 228 226 225 229 230 232 235 237 233 233 231 236 241 237 234 237 242 244 246 249 249 248 250 252
258 249 235 229 237 241 233 229 235 234 239 240 225 222 221 223 223 227 233 232 231 233 233 234 236 239 242 243 235 233 230 228 228 235 235 237 239 243 247 250 251 252 253 253
258 262 255 246 235 239 242 236 235 236 238 242 238 232 235 233 235 234 235 235 240 243 239 236 236 238 240 238 235 236 237 233 232 232 231 234 236 239 243 247 248 251 253 254
257 256 260 261 250 245 243 240 240 238 238 239 239 239 240 238 236 236 241 242 243 244 244 243 241 243 240 234 234 234 234 236 240 243 242 241 241 243 246 249 252 254 256 258
259 259 259 259 264 262 248 243 245 242 240 240 242 242 241 241 243 244 244 245 246 248 250 251 247 247 247 244 239 237 237 239 241 234 240 248 253 253 254 256 257 259 260 262
259 259 260 256 256 264 261 252 244 246 247 243 240 243 244 245 243 241 243 244 244 243 246 249 251 249 246 247 242 239 238 236 236 241 248 256 256 255 252 251 253 257 259 259
252 253 254 254 253 252 255 257 251 248 244 241 240 238 238 241 241 242 241 242 247 247 245 245 245 248 250 247 242 242 243 243 244 247 249 249 251 252 252 255 258 260 261 265
249 247 248 250 250 253 253 252 254 254 250 246 244 244 244 241 241 243 246 246 245 245 246 248 249 245 245 247 246 244 243 242 243 245 245 247 248 249 252 254 257 260 262 264
258 254 252 251 251 250 252 250 253 252 248 249 248 246 247 247 244 244 246 249 248 246 244 245 247 246 244 244 246 248 247 246 245 246 247 248 250 251 252 254 256 258 259 261
264 260 256 252 253 253 258 257 254 254 254 253 252 252 251 250 249 247 246 247 248 248 246 244 245 245 244 243 244 245 247 248 250 250 251 251 252 253 253 254 256 258 259 261
237 250 260 257 256 256 257 259 255 250 249 250 250 250 250 249 251 250 247 246 246 247 249 249 248 248 249 248 249 248 248 247 248 250 251 252 253 253 254 255 256 257 259 261